Weather in Novoprokhladnoye

Russia / Republic of Adygea     44°08′15″N   40°17′12″E
temp.,
°C
wind,
m/s
gust,
m/s
humid.,
%
clouds,
%
prec.,
mm/h
press.,
hPa
HPBL,
m
25 january, mon
mon2500:00+1s3363100 0.0 101942
03:00+1s3363100 0.0 101846
06:00+1s336280 0.0 101943
09:00+3s336442 0.0 101948
12:00+9ssw12650 0.0 1018152
15:00+9s12780 0.0 1015117
18:00+4s33790 0.0 101531
21:00+2s336830 0.0 101546
26 january, tue
tue2600:00+3s3364100 0.0 101644
03:00+2ssw3465100 0.0 101665
06:00+1ssw3581100 0.0 1018104
09:00+3s3479100 0.1 1019110
12:00+9ssw237091 0.0 1019332
15:00+9s127491 0.0 1017242
18:00+4sse238189 0.0 101832
21:00+4s337595 0.0 101740
27 january, wed
wed2700:00+4s3375100 0.0 101642
03:00+4s3374100 0.0 101535
06:00+4s3371100 0.0 101336
09:00+6s3368100 0.0 101143
12:00+10s2267100 0.0 100994
15:00+11s1273100 0.0 100755
18:00+6ssw2371100 0.0 100729
21:00+5s3366100 0.0 100640
28 january, thu
thu2800:00+4s336276 0.0 100642
03:00+4s336173 0.0 100543
06:00+5s3362100 0.0 100551
09:00+6s237397 0.0 100665
12:00+10sw016797 0.0 1005203
15:00+7se018699 1.7 1005290
18:00+4sw1295100 3.1 1007268
21:00+3sw1297100 10.4 1008122
29 january, fri
fri2900:00+3wsw1197100 3.2 100890
03:00+2s1197100 7.2 100768
06:00+2e129799 1.0 1007157
09:00+1nw2498100 3.6 1009216
12:00+1nnw1198100 8.9 1011140
15:00+1nw1198100 9.4 1011119
18:00−1wsw1195100 0.8 101222
21:00−2sw229391 1.2 101433